Location: Bannatyne
(13.0833°N, 59.5333°W)
Time: 13:29:49
(UTC+00:00)

deb Explorer IX - Pass Details

Date: 29 January 2020
Orbit: 549 x 1099 km, 38.8° (Epoch: 22 February)

Event Time Altitude Azimuth Distance (km) Brightness Sun altitude
Rises 06:32:48 0° 315° (NW) 3,888 - -55.6°
Reaches altitude 10° 06:35:43 10° 320° (NW) 2,904 - -54.9°
Maximum altitude 06:42:39 53° 36° (NE) 1,219 - -53.2°
Drops below altitude 10° 06:48:53 10° 112° (ESE) 2,616 - -51.8°
Exits shadow 06:49:34 - 113° (ESE) 2,851 ? -51.6°
Sets 06:51:22 0° 117° (ESE) 3,476 ? -51.2°
